This is the latest recevied weather packets stored in our database for station/object SR6WXJG. If no packets are shown the sender has not sent any weather packets the latest 1 day(s).
| Time | Temp. | Humidity | Pressure | Rain* | Wind** | Luminosity | Snow |
|---|---|---|---|---|---|---|---|
| 1777980944 | 23.33° C | 46% | 1006 hPa | 0 mm | 2.24 m/s, 56° | - | - |
| 1777980043 | 23.33° C | 45% | 1007 hPa | 0 mm | 2.24 m/s, 62° | - | - |
| 1777979143 | 22.78° C | 46% | 1007 hPa | 0 mm | 2.24 m/s, 62° | - | - |
| 1777978243 | 22.78° C | 49% | 1007 hPa | 0 mm | 2.24 m/s, 62° | - | - |
| 1777977342 | 22.22° C | 49% | 1007 hPa | 0 mm | 2.24 m/s, 62° | - | - |
| 1777976442 | 21.67° C | 49% | 1008 hPa | 0 mm | 2.24 m/s, 63° | - | - |
| 1777975541 | 21.67° C | 49% | 1008 hPa | 0 mm | 2.24 m/s, 63° | - | - |
| 1777974641 | 21.67° C | 52% | 1007 hPa | 0 mm | 2.24 m/s, 63° | - | - |
| 1777973741 | 21.11° C | 53% | 1007 hPa | 0 mm | 2.24 m/s, 63° | - | - |
| 1777972840 | 21.11° C | 53% | 1008 hPa | 0 mm | 2.24 m/s, 63° | - | - |
| 1777971940 | 20.56° C | 54% | 1008 hPa | 0 mm | 2.24 m/s, 63° | - | - |
| 1777971039 | 20° C | 57% | 1008 hPa | 0 mm | 2.24 m/s, 63° | - | - |
| 1777970139 | 20° C | 57% | 1008 hPa | 0 mm | 2.24 m/s, 63° | - | - |
| 1777969239 | 19.44° C | 58% | 1008 hPa | 0 mm | 1.79 m/s, 62° | - | - |
| 1777968338 | 18.89° C | 60% | 1008 hPa | 0 mm | 1.79 m/s, 62° | - | - |
| 1777967438 | 18.33° C | 63% | 1008 hPa | 0 mm | 1.79 m/s, 62° | - | - |
| 1777966538 | 18.33° C | 63% | 1008 hPa | 0 mm | 1.79 m/s, 62° | - | - |
| 1777965637 | 17.22° C | 65% | 1009 hPa | 0 mm | 1.34 m/s, 51° | - | - |
| 1777964737 | 16.67° C | 72% | 1009 hPa | 0 mm | 1.34 m/s, 51° | - | - |
| 1777963836 | 16.67° C | 72% | 1009 hPa | 0 mm | 1.34 m/s, 51° | - | - |
| 1777962936 | 16.67° C | 72% | 1009 hPa | 0 mm | 1.34 m/s, 36° | - | - |
| 1777962036 | 16.11° C | 71% | 1009 hPa | 0 mm | 1.34 m/s, 16° | - | - |
| 1777961135 | 15° C | 77% | 1009 hPa | 0 mm | 1.34 m/s, 16° | - | - |
| 1777960235 | 15° C | 77% | 1009 hPa | 0 mm | 1.34 m/s, 16° | - | - |
| 1777959335 | 15° C | 77% | 1009 hPa | 0 mm | 1.34 m/s, 16° | - | - |
* Rain latest hour (hover to see other rain measurements)
** Current wind speed in m/s (hover to see current wind gust speed)